User: anonymous   Login
Location: Unspecified
(0.0000°N, 0.0000°E)
Time: 18:25:34
(UTC+00:00)
Language:

SR - Orbit

View from above orbital plane
View from above orbital plane
View from above satellite
View from above satellite

Ground track
Ground track

The orbit data is extracted from the following two-line orbital elements,

1    46U 60007B   19107.77136708 -.00000005 +00000-0 +22104-4 0  9999
2    46 066.6888 119.3625 0202481 089.1233 273.3068 14.49217742077288
Epoch (UTC): 17 April 2019 18:30:46
Eccentricity: 0.0202481
inclination: 66.6888°
perigee height: 584 km
apogee height: 872 km
right ascension of ascending node: 119.3625°
argument of perigee: 89.1233°
revolutions per day: 14.49217742
mean anomaly at epoch: 273.3068°
orbit number at epoch: 7728

The dashed part of the orbit path shows where the satellite is in the earth's shadow,  

DLR